Change the Weather History Date:

Tuesday, September 17, 2013

  Actual Average Record
Temperature  
Mean Temperature 64 °F -  
Max Temperature 69 °F 77 °F 93 °F (1939)
Min Temperature 58 °F 64 °F 48 °F (1966)
Growing Degree Days 14 (Base 50)    
Moisture  
Dew Point 54 °F    
Average Humidity 67    
Maximum Humidity 93    
Minimum Humidity 55    
Precipitation  
Precipitation 0.00 in - - ()
Sea Level Pressure  
Sea Level Pressure 30.32 in    
Wind  
Wind Speed 11 mph (NE)    
Max Wind Speed 18 mph    
Max Gust Speed 26 mph    
Visibility 10 miles    
Events Rain    
Averages and records for this station are not official NWS values.
T = Trace of Precipitation, MM = Missing Value Source: NWS Daily Summary

Daily Weather History Graph

Daily Weather History Graph

Search for Another Location

Airport or City:

Trip Planner

Search our weather history database for the weather conditions in past years. The results will help you decide how hot, cold, wet, or windy it might be!

Date:

Astronomy

Sep. 17, 2013 Rise Set
Actual Time 6:49 AM EDT 7:09 PM EDT
Civil Twilight 6:23 AM EDT 7:35 PM EDT
Nautical Twilight 5:52 AM EDT 8:06 PM EDT
Astronomical Twilight 5:21 AM EDT 8:37 PM EDT
Moon 5:54 PM EDT (9/17) 4:43 AM EDT (9/17)
Length of Visible Light 13h 12m
Length of Day
12h 20m
Waxing Gibbous, 96% of the Moon is Illuminated
Sep 17
Waxing Gibbous
Sep 19
Full
Sep 26
Last Quarter
Oct 4
New
Oct 11
First Quarter

Hourly Weather History & Observations

Time (EDT) Temp. Dew Point Humidity Pressure Visibility Wind Dir Wind Speed Gust Speed Precip Events Conditions
12:58 AM 64.2 °F 62.1 °F 93% 30.22 in 10.0 mi NNW 2.3 mph - N/A   Mostly Cloudy
1:58 AM 64.9 °F 62.1 °F 90% 30.22 in 10.0 mi NNW 5.8 mph - N/A   Overcast
2:58 AM 63.9 °F 61.3 °F 91% 30.23 in 10.0 mi North 4.6 mph - N/A   Mostly Cloudy
3:58 AM 66.2 °F 56.8 °F 72% 30.23 in 10.0 mi NE 11.5 mph - N/A   Scattered Clouds
4:58 AM 64.9 °F 56.3 °F 74% 30.25 in 10.0 mi NE 12.7 mph - N/A   Clear
5:58 AM 64.9 °F 57.2 °F 76% 30.27 in 10.0 mi NNE 10.4 mph - N/A   Scattered Clouds
6:43 AM 64.4 °F 57.2 °F 77% 30.27 in 10.0 mi NNE 17.3 mph 25.3 mph N/A   Mostly Cloudy
6:48 AM 64.4 °F 57.2 °F 77% 30.27 in 10.0 mi NNE 16.1 mph 26.5 mph N/A   Scattered Clouds
6:58 AM 63.7 °F 56.5 °F 77% 30.29 in 10.0 mi NNE 18.4 mph 24.2 mph N/A   Scattered Clouds
7:58 AM 64.6 °F 57.6 °F 78% 30.31 in 10.0 mi NE 18.4 mph 24.2 mph N/A   Partly Cloudy
8:53 AM 66.2 °F 57.2 °F 73% 30.31 in 10.0 mi NNE 17.3 mph 26.5 mph N/A   Mostly Cloudy
8:58 AM 66.6 °F 57.4 °F 72% 30.33 in 10.0 mi NNE 16.1 mph 26.5 mph N/A   Scattered Clouds
9:18 AM 66.2 °F 57.2 °F 73% 30.32 in 10.0 mi NE 18.4 mph 24.2 mph N/A   Mostly Cloudy
9:58 AM 67.1 °F 58.3 °F 73% 30.36 in 10.0 mi North 11.5 mph 20.7 mph N/A   Overcast
10:58 AM 66.2 °F 56.5 °F 71% 30.38 in 10.0 mi North 15.0 mph 19.6 mph N/A   Overcast
11:03 AM 66.2 °F 57.2 °F 73% 30.36 in 10.0 mi North 15.0 mph - N/A   Mostly Cloudy
11:18 AM 66.2 °F 55.4 °F 68% 30.36 in 10.0 mi NNE 12.7 mph - N/A   Overcast
11:43 AM 68.0 °F 55.4 °F 64% 30.37 in 10.0 mi NNE 15.0 mph 19.6 mph N/A   Overcast
11:48 AM 68.0 °F 55.4 °F 64% 30.37 in 10.0 mi North 13.8 mph 19.6 mph N/A   Overcast
11:53 AM 66.2 °F 55.4 °F 68% 30.37 in 10.0 mi North 12.7 mph 19.6 mph N/A   Overcast
11:58 AM 66.7 °F 55.9 °F 68% 30.39 in 10.0 mi NNE 11.5 mph 19.6 mph N/A   Overcast
12:13 PM 66.2 °F 55.4 °F 68% 30.37 in 10.0 mi North 11.5 mph 18.4 mph N/A   Overcast
12:58 PM 66.0 °F 54.3 °F 66% 30.38 in 10.0 mi NNE 16.1 mph 20.7 mph N/A   Overcast
1:33 PM 68.0 °F 53.6 °F 60% 30.35 in 10.0 mi NNE 13.8 mph - N/A   Mostly Cloudy
1:38 PM 68.0 °F 53.6 °F 60% 30.35 in 10.0 mi NNE 12.7 mph 18.4 mph N/A   Scattered Clouds
1:51 PM 68.0 °F 53.6 °F 60% 30.34 in 10.0 mi NE 11.5 mph 18.4 mph N/A   Scattered Clouds
1:57 PM 69.8 °F 53.6 °F 56% 30.34 in 10.0 mi North 8.1 mph - N/A Rain Light Rain
1:58 PM 69.8 °F 53.6 °F 56% 30.36 in 10.0 mi North 8.1 mph - N/A   Scattered Clouds
1:59 PM 69.8 °F 53.6 °F 56% 30.34 in 10.0 mi North 11.5 mph - N/A Rain Light Rain
2:03 PM 68.0 °F 53.6 °F 60% 30.34 in 10.0 mi NE 12.7 mph 20.7 mph N/A   Mostly Cloudy
2:28 PM 68.0 °F 53.6 °F 60% 30.33 in 10.0 mi NNE 13.8 mph 17.3 mph N/A   Mostly Cloudy
2:48 PM 68.0 °F 53.6 °F 60% 30.33 in 10.0 mi North 11.5 mph - N/A   Scattered Clouds
2:58 PM 69.4 °F 53.6 °F 57% 30.35 in 10.0 mi NE 11.5 mph 19.6 mph 0.00 in   Mostly Cloudy
3:08 PM 68.0 °F 53.6 °F 60% 30.33 in 10.0 mi NNE 12.7 mph - N/A   Mostly Cloudy
3:13 PM 68.0 °F 51.8 °F 56% 30.33 in 10.0 mi NNE 13.8 mph - N/A   Mostly Cloudy
3:58 PM 68.4 °F 51.8 °F 55% 30.34 in 10.0 mi NNE 12.7 mph - N/A   Mostly Cloudy
4:58 PM 68.0 °F 51.6 °F 56% 30.34 in 10.0 mi NNE 10.4 mph - N/A   Scattered Clouds
5:58 PM 66.9 °F 52.2 °F 59% 30.34 in 10.0 mi ENE 9.2 mph 17.3 mph N/A   Mostly Cloudy
6:13 PM 66.2 °F 53.6 °F 64% 30.32 in 10.0 mi ENE 12.7 mph - N/A   Overcast
6:23 PM 66.2 °F 53.6 °F 64% 30.32 in 10.0 mi East 12.7 mph - N/A   Overcast
6:43 PM 64.4 °F 51.8 °F 64% 30.31 in 10.0 mi East 10.4 mph - N/A   Overcast
6:58 PM 64.0 °F 52.3 °F 66% 30.33 in 10.0 mi East 10.4 mph - N/A   Mostly Cloudy
7:03 PM 64.4 °F 51.8 °F 64% 30.31 in 10.0 mi East 12.7 mph - N/A   Mostly Cloudy
7:18 PM 62.6 °F 51.8 °F 68% 30.31 in 10.0 mi ENE 12.7 mph - N/A   Mostly Cloudy
7:23 PM 62.6 °F 51.8 °F 68% 30.31 in 10.0 mi East 10.4 mph - N/A   Scattered Clouds
7:28 PM 62.6 °F 51.8 °F 68% 30.31 in 10.0 mi ENE 12.7 mph - N/A   Mostly Cloudy
7:43 PM 62.6 °F 51.8 °F 68% 30.31 in 10.0 mi East 10.4 mph - N/A   Mostly Cloudy
7:48 PM 62.6 °F 51.8 °F 68% 30.31 in 10.0 mi East 12.7 mph - N/A   Mostly Cloudy
7:58 PM 62.4 °F 51.8 °F 68% 30.33 in 10.0 mi East 12.7 mph - N/A   Overcast
8:03 PM 62.6 °F 51.8 °F 68% 30.31 in 10.0 mi ENE 10.4 mph - N/A   Overcast
8:13 PM 62.6 °F 51.8 °F 68% 30.32 in 10.0 mi ENE 13.8 mph - N/A   Overcast
8:58 PM 62.1 °F 51.1 °F 67% 30.34 in 10.0 mi NE 12.7 mph - N/A   Overcast
9:08 PM 62.6 °F 50.0 °F 63% 30.32 in 10.0 mi ENE 13.8 mph - N/A   Overcast
9:58 PM 61.2 °F 50.2 °F 67% 30.35 in 10.0 mi ENE 12.7 mph - N/A   Overcast
10:58 PM 60.6 °F 49.6 °F 67% 30.34 in 10.0 mi ENE 11.5 mph - N/A   Clear
11:58 PM 58.6 °F 50.2 °F 73% 30.34 in 10.0 mi ENE 10.4 mph - N/A   Clear